Regional Weather Roundup
Issued by NWS Columbia, SC

Home | Current Version | Previous Version | Text Only | Print | Product List | Glossary On
Versions: 1 2 3 4 5 6 7 8 9 10 11 12 13 14 15 16 17 18 19 20 21 22 23 24 25 26 27 28
000
ASUS42 KCAE 311010
RWRCAE
REGIONAL WEATHER ROUNDUP
NATIONAL WEATHER SERVICE COLUMBIA SC
600 AM EDT TUE MAY 31 2016

NOTE: "FAIR" INDICATES FEW OR NO CLOUDS BELOW 12,000 FEET WITH NO
SIGNIFICANT WEATHER AND/OR OBSTRUCTIONS TO VISIBILITY.

NOT ALL STATIONS ARE QUALITY CONTROLLED BY THE NATIONAL
WEATHER SERVICE. USE DATA WITH CAUTION...ESPECIALLY
DEWPOINT OBSERVATIONS.

SCZ001>056-GAZ040-063>065-077-311100-
...UPSTATE SOUTH CAROLINA...

CITY           SKY/WX    TMP DP  RH WIND       PRES   REMARKS
ANDERSON       CLEAR     67  64  90 NW3       29.94S
LIBERTY        CLOUDY    63  62  96 NW3       29.95S
SPARTANBURG    CLEAR     66  63  88 NE6       29.94S
CLEMSON        PTCLDY    67  64  90 CALM      29.96S
GREENVILLE     PTCLDY    69  65  86 N5        29.96R
GREENWOOD      CLEAR     66  63  90 CALM      29.94S
GREER          CLEAR     68  64  87 N3        29.94S
ROCK HILL      CLEAR     65  64  97 CALM      29.95R
CHESTER        SUNNY     64  63  94 CALM      29.95R
LAURENS        MOSUNNY   64  63  94 N5        29.93S


...CENTRAL SOUTH CAROLINA...

CITY           SKY/WX    TMP DP  RH WIND       PRES   REMARKS
COLUMBIA APT   CLOUDY    72  68  87 N7        29.90S
COLUMBIA OWENS CLOUDY    72  68  87 NE3       29.92R
MCENTIRE ANGB  CLOUDY    70  69  97 N6        29.91R FOG
ORANGEBURG     MOCLDY    70  69  97 N6        29.90R
SUMTER SHAW    CLOUDY    70  69  94 N5        29.88R
NEWBERRY       SUNNY     66  66 100 NE6       29.95S
AIKEN          FAIR      64  63  94 CALM      29.95R
BARNWELL       PTSUNNY   72  72 100 CALM      29.91R
MANNING        CLOUDY    68  68 100 N5        29.90R
LANCASTER      SUNNY     66  66 100 N5        29.94R
WINNSBORO      FOG       66  66 100 CALM      29.93R VSB 1/2


...EASTERN AND COASTAL SOUTH CAROLINA...

CITY           SKY/WX    TMP DP  RH WIND       PRES   REMARKS
MYRTLE BEACH   CLOUDY    72  63  73 N8        29.89R
N MYRTLE BCH   CLOUDY    71  70  96 N7        29.87R FOG
CONWAY         PTSUNNY   70  70 100 CALM      29.89R FOG
MARION         CLOUDY    70  70 100 CALM      29.89R
HARTSVILLE     CLOUDY    68  66  94 N6        29.91R
FLORENCE       CLOUDY    72  70  93 NE7       29.90R
DARLINGTON     CLOUDY    69  69 100 NE7       29.91S
CHARLESTON APT PTCLDY    71  68  90 NW6       29.87S
MOUNT PLEASANT PTSUNNY   72  72 100 N3        29.87S
WALTERBORO     MOSUNNY   70  70 100 NW3       29.90R
BEAUFORT       CLOUDY    71  69  93 NW6       29.89R


...EASTERN GEORGIA...

CITY           SKY/WX    TMP DP  RH WIND       PRES   REMARKS
AUGUSTA BUSH F CLEAR     67  66  97 CALM      29.90R
AUGUSTA DANIEL CLEAR     70  66  87 N5        29.92R
THOMSON        CLEAR     67  67 100 CALM      29.96R
WASHINGTON     FAIR      68  68 100 CALM      29.92R
CLAXTON        FAIR      66  66 100 CALM      29.89R FOG
SYLVANIA       SUNNY     70  68  94 CALM      29.90S
STATESBORO     PTCLDY    67  67 100 CALM      29.90R
SAVANNAH       MOCLDY    71  68  90 CALM      29.89R


...SOUTHERN NORTH CAROLINA...

CITY           SKY/WX    TMP DP  RH WIND       PRES   REMARKS
CHARLOTTE      PTCLDY    67  64  90 NE5       29.95S
MONROE         CLEAR     67  64  90 N7        29.94R
WADESBORO      CLOUDY   N/A N/A N/A CALM      29.93R FOG
ROCKINGHAM     PTSUNNY   68  68  99 N3        29.92R
RUTHERFORDTON  MOCLDY    65  65 100 N5        29.98R
ASHEVILLE      CLOUDY    61  57  87 NW6       30.03S

$$




USA.gov is the U.S. government's official web portal to all federal, state and local government web resources and services.